Weather in Mashkovichi

Russia / Tula Oblast     54°11′23″N   36°16′33″E
temp.,
°C
wind,
m/s
gust,
m/s
humid.,
%
clouds,
%
prec.,
mm/h
press.,
hPa
HPBL,
m
14 april, wed
wed1400:00+12se3863100 0.0 1020187
03:00+10sse397914 0.0 1020175
06:00+9se369415 0.0 1020112
09:00+13s467626 0.0 1020487
12:00+17s465829 0.0 10181240
15:00+18s3651100 0.3 10171691
18:00+17ese115380 0.0 101619
21:00+12e2257100 0.0 101716
15 april, thu
thu1500:00+10se226095 0.0 101614
03:00+10e2256100 0.0 101615
06:00+10ne1157100 0.0 101512
09:00+13ese1254100 0.0 1016227
12:00+16w3247100 0.0 1015668
15:00+16nne2547100 0.0 10151350
18:00+14ene366098 0.0 1014151
21:00+11ne377366 0.1 1015125
16 april, fri
fri1600:00+10ne4885100 0.1 1015291
03:00+10e51188100 0.3 1016439
06:00+9ene51188100 0.2 1017349
09:00+10ene5108598 0.3 1018411
12:00+14e6867100 0.1 10181099
15:00+14ene51073100 0.6 10181017
18:00+12e71380100 3.0 1019698
21:00+11ene61289100 8.5 1020487
17 april, sat
sat1700:00+9ene5129093 4.2 1021584
03:00+8ene6119190 4.3 1021402
06:00+7ene5119340 0.0 1023426
09:00+9ene6108370 0.1 1023612
12:00+12ene796741 0.0 1023941
15:00+14ene7105895 0.0 10231155
18:00+12ene61259100 0.0 10231083
21:00+10ene614619 0.0 1024607
18 april, sun
sun1800:00+7ene513619 0.0 1025462
03:00+6ene51266100 0.0 1026416
06:00+6ene41168100 0.0 1026463
09:00+7ene51068100 0.0 1027506
12:00+9e595899 0.0 1028651
15:00+14e56435 0.0 10271601
18:00+12ene47485 0.0 1028490
21:00+7ene36655 0.0 102992